Date String (YYYY-MM-DD hh:mm:ss) UTC,Instrument flags,absolute air pressure of the measurement (hPa),sample flow rate (lpm),inlet stack bypass flow (lpm),air temperature of the measurement (°C),ambient temperature measured by the external sensor (°C),aerosol sample conditioner tube jacket temperature (°C),OPC LED temperature (°C),internal box temperature (°C),relative humidity of the measurement (%),span deviation,mass concentration of particles derived from Lorenz-Mie calculation of OPC scattering (μg/m³),mass concentration of particles derived from Lorenz-Mie calculation of OPC scattering (μg/m³),mass concentration of particles derived from Lorenz-Mie calculation of OPC scattering (μg/m³)
DateTimeUTC,F1_M11,P_M11,Q1_M11,Q2_M11,T1_M11,T2_M11,T3_M11,T4_M11,T5_M11,U1_M11,ZSPAN_M11,X0_M11,X2_M11,X1_M11
2024-01-09 07:00:00,SystemResetWarning,0823.0,5.01,000.00,018.8,018.1,000.0,027.2,020.0,5.5,0000.0,0002.95,0001.17,0000.90
2024-01-09 07:01:00,SystemResetWarning,0823.0,4.99,000.00,018.8,018.0,000.0,027.2,020.0,5.5,0000.0,0002.14,0001.15,0000.89
2024-01-09 07:02:00,SystemResetWarning,0823.0,4.99,000.00,018.8,017.8,000.0,027.2,020.0,5.6,0000.0,0002.08,0001.13,0000.89
2024-01-09 07:03:00,SystemResetWarning,0823.1,5.01,000.00,018.8,017.7,000.0,027.2,020.0,5.7,0000.0,0002.09,0001.13,0000.88
2024-01-09 07:04:00,SystemResetWarning,0823.0,5.01,000.00,018.7,017.6,000.0,027.2,020.0,5.7,0000.0,0002.18,0001.16,0000.88
2024-01-09 07:05:00,SystemResetWarning,0822.9,5.01,000.00,018.7,017.5,000.0,027.2,020.0,5.7,0000.0,0002.21,0001.17,0000.88
2024-01-09 07:06:00,SystemResetWarning,0823.1,4.99,000.00,018.7,017.4,000.0,027.3,020.0,5.7,0000.0,0002.21,0001.17,0000.87
2024-01-09 07:07:00,SystemResetWarning,0822.9,5.00,000.00,018.7,017.3,000.0,027.3,020.0,5.8,0000.0,0002.22,0001.17,0000.87
2024-01-09 07:08:00,SystemResetWarning,0822.9,4.99,000.00,018.7,017.2,000.0,027.3,020.0,5.9,0000.0,0002.18,0001.16,0000.87
2024-01-09 07:09:00,SystemResetWarning,0823.2,5.00,000.00,018.7,017.4,000.0,027.2,020.2,5.9,0000.0,0002.35,0001.14,0000.86
2024-01-09 07:10:00,SystemResetWarning,0823.1,5.01,000.00,018.8,018.1,000.0,027.2,020.5,5.9,0000.0,0003.36,0001.13,0000.87
2024-01-09 07:11:00,SystemResetWarning,0823.3,5.00,000.00,019.0,018.7,000.0,027.2,020.8,5.8,0000.0,0003.33,0001.12,0000.87
2024-01-09 07:12:00,SystemResetWarning,0823.0,4.99,000.00,019.0,018.7,000.0,027.2,020.4,5.8,0000.0,0003.40,0001.13,0000.88
2024-01-09 07:13:00,SystemResetWarning,0823.1,4.99,000.00,019.0,018.6,000.0,027.2,020.2,5.7,0000.0,0003.41,0001.13,0000.89
2024-01-09 07:14:00,SystemResetWarning,0822.9,5.01,000.00,018.9,018.4,000.0,027.2,020.1,5.8,0000.0,0003.43,0001.14,0000.91
2024-01-09 07:15:00,SystemResetWarning,0822.9,5.01,000.00,018.8,018.1,000.0,027.2,020.0,5.9,0000.0,0004.42,0001.13,0000.92
2024-01-09 07:16:00,SystemResetWarning,0822.8,5.00,000.00,018.8,017.9,000.0,027.2,020.0,5.8,0000.0,0004.47,0001.10,0000.93
2024-01-09 07:17:00,SystemResetWarning,0822.8,4.99,000.00,018.8,017.8,000.0,027.2,020.0,5.8,0000.0,0004.51,0001.12,0000.95
2024-01-09 07:18:00,SystemResetWarning,0822.7,5.00,000.00,018.8,017.6,000.0,027.2,020.0,5.8,0000.0,0004.55,0001.14,0000.96
2024-01-09 07:19:00,SystemResetWarning,0822.7,5.00,000.00,018.8,017.6,000.0,027.2,020.0,5.9,0000.0,0004.73,0001.17,0000.98
2024-01-09 07:20:00,SystemResetWarning,0822.6,5.00,000.00,018.8,017.5,000.0,027.2,020.0,5.9,0000.0,0004.79,0001.19,0001.00
2024-01-09 07:21:00,SystemResetWarning,0822.8,5.00,000.00,018.7,017.4,000.0,027.2,020.0,5.9,0000.0,0003.25,0001.20,0001.02
2024-01-09 07:22:00,SystemResetWarning,0822.6,5.01,000.00,018.7,017.4,000.0,027.3,020.0,5.9,0000.0,0003.27,0001.21,0001.02
2024-01-09 07:23:00,SystemResetWarning,0822.7,5.01,000.00,018.7,017.3,000.0,027.3,020.0,5.8,0000.0,0003.33,0001.24,0001.03
2024-01-09 07:24:00,SystemResetWarning,0822.8,5.01,000.00,018.7,017.2,000.0,027.3,020.0,5.9,0000.0,0003.46,0001.27,0001.03
2024-01-09 07:25:00,SystemResetWarning,0822.8,5.00,000.00,018.8,017.7,000.0,027.2,020.4,5.9,0000.0,0003.50,0001.29,0001.03
2024-01-09 07:26:00,SystemResetWarning,0822.6,5.00,000.00,018.9,018.5,000.0,027.2,020.8,5.8,0000.0,0002.92,0001.34,0001.05
2024-01-09 07:27:00,SystemResetWarning,0822.9,4.98,000.00,019.0,018.8,000.0,027.2,020.6,5.8,0000.0,0002.53,0001.38,0001.05
2024-01-09 07:28:00,SystemResetWarning,0823.0,4.99,000.00,019.0,018.7,000.0,027.2,020.3,5.7,0000.0,0002.68,0001.43,0001.05
2024-01-09 07:29:00,SystemResetWarning,0823.1,5.00,000.00,018.9,018.5,000.0,027.2,020.1,5.7,0000.0,0002.71,0001.44,0001.06
2024-01-09 07:30:00,SystemResetWarning,0823.0,5.00,000.00,018.9,018.2,000.0,027.2,020.0,5.7,0000.0,0002.61,0001.43,0001.05
2024-01-09 07:31:00,SystemResetWarning,0822.8,5.01,000.00,018.8,018.0,000.0,027.2,020.0,5.8,0000.0,0002.47,0001.43,0001.05
2024-01-09 07:32:00,SystemResetWarning,0822.5,5.00,000.00,018.8,017.8,000.0,027.2,020.0,5.7,0000.0,0002.51,0001.46,0001.06
2024-01-09 07:33:00,SystemResetWarning,0822.7,5.00,000.00,018.8,017.6,000.0,027.3,020.0,5.7,0000.0,0002.52,0001.48,0001.06
2024-01-09 07:34:00,SystemResetWarning,0822.4,5.00,000.00,018.8,017.5,000.0,027.3,020.0,5.6,0000.0,0002.60,0001.49,0001.06
2024-01-09 07:35:00,SystemResetWarning,0822.4,5.00,000.00,018.8,017.4,000.0,027.3,020.0,5.6,0000.0,0002.55,0001.48,0001.07
2024-01-09 07:36:00,SystemResetWarning,0822.4,5.00,000.00,018.7,017.3,000.0,027.3,020.0,5.7,0000.0,0002.59,0001.49,0001.06
2024-01-09 07:37:00,SystemResetWarning,0822.4,5.00,000.00,018.7,017.1,000.0,027.3,020.0,5.8,0000.0,0002.52,0001.45,0001.05
2024-01-09 07:38:00,SystemResetWarning,0822.4,5.01,000.00,018.7,017.4,000.0,027.3,020.2,5.8,0000.0,0002.52,0001.44,0001.06
2024-01-09 07:39:00,SystemResetWarning,0822.5,5.02,000.00,018.9,018.3,000.0,027.2,020.6,5.9,0000.0,0002.59,0001.41,0001.05
2024-01-09 07:40:00,SystemResetWarning,0822.4,4.99,000.00,019.0,018.8,000.0,027.2,020.7,5.8,0000.0,0002.55,0001.39,0001.04
2024-01-09 07:41:00,SystemResetWarning,0822.3,4.98,000.00,019.0,018.7,000.0,027.2,020.4,5.7,0000.0,0002.99,0001.43,0001.03
2024-01-09 07:42:00,SystemResetWarning,0822.4,5.00,000.00,019.0,018.5,000.0,027.2,020.1,5.6,0000.0,0003.22,0001.43,0001.03
2024-01-09 07:43:00,SystemResetWarning,0822.4,5.00,000.00,018.9,018.3,000.0,027.2,020.0,5.6,0000.0,0003.17,0001.40,0001.01
2024-01-09 07:44:00,SystemResetWarning,0822.3,4.99,000.00,018.9,018.0,000.0,027.2,020.0,5.7,0000.0,0003.25,0001.41,0001.00
2024-01-09 07:45:00,SystemResetWarning,0822.3,5.01,000.00,018.8,017.8,000.0,027.2,020.0,5.6,0000.0,0003.96,0001.42,0001.00
2024-01-09 07:46:00,SystemResetWarning,0822.4,5.01,000.00,018.8,017.6,000.0,027.3,020.0,5.5,0000.0,0003.81,0001.40,0000.99
2024-01-09 07:47:00,SystemResetWarning,0822.3,5.00,000.00,018.8,017.4,000.0,027.3,020.0,5.6,0000.0,0003.80,0001.40,0000.97
2024-01-09 07:48:00,SystemResetWarning,0822.3,5.00,000.00,018.8,017.3,000.0,027.3,020.0,5.6,0000.0,0003.74,0001.37,0000.96
2024-01-09 07:49:00,SystemResetWarning,0822.3,4.99,000.00,018.7,017.2,000.0,027.3,020.0,5.6,0000.0,0004.04,0001.34,0000.93
2024-01-09 07:50:00,SystemResetWarning,0822.4,5.00,000.00,018.8,017.3,000.0,027.3,020.1,5.5,0000.0,0004.14,0001.32,0000.92
2024-01-09 07:51:00,SystemResetWarning,0822.4,5.01,000.00,018.8,018.0,000.0,027.3,020.5,5.6,0000.0,0004.20,0001.34,0000.91
2024-01-09 07:52:00,SystemResetWarning,0822.4,4.99,000.00,019.0,018.7,000.0,027.2,020.8,5.6,0000.0,0003.89,0001.30,0000.89
2024-01-09 07:53:00,SystemResetWarning,0822.4,4.99,000.00,019.0,018.7,000.0,027.2,020.4,5.5,0000.0,0003.70,0001.31,0000.89
2024-01-09 07:54:00,SystemResetWarning,0822.4,5.00,000.00,019.0,018.5,000.0,027.2,020.1,5.4,0000.0,0003.76,0001.32,0000.88
2024-01-09 07:55:00,SystemResetWarning,0822.4,5.01,000.00,018.9,018.2,000.0,027.2,020.0,5.4,0000.0,0003.67,0001.31,0000.88
2024-01-09 07:56:00,SystemResetWarning,0822.4,5.00,000.00,018.8,018.0,000.0,027.3,020.0,5.4,0000.0,0002.95,0001.29,0000.87
2024-01-09 07:57:00,SystemResetWarning,0822.4,4.99,000.00,018.8,017.7,000.0,027.3,020.0,5.4,0000.0,0002.94,0001.28,0000.88
2024-01-09 07:58:00,SystemResetWarning,0822.4,5.00,000.00,018.8,017.6,000.0,027.3,020.0,5.4,0000.0,0002.96,0001.29,0000.87
2024-01-09 07:59:00,SystemResetWarning,0822.4,5.00,000.00,018.8,017.5,000.0,027.3,020.0,5.4,0000.0,0003.02,0001.30,0000.88
